sat.trackr.live / text

‹ back to catalog

STARLINK-2574

NORAD 48395 · 2021-038AU

PAYLOAD ACTIVE UNKNOWN

§ Identity

Operator
Country
US
Launch date
2021-05-04
Launch site
AFETR
Launch vehicle
Mass (kg)
RCS (m²)

Purposes: comms

External: N2YO · Heavens-Above · Gunter

§ Orbital elements

Epoch: 2026-09-15T04:17:57.233760Z

Period
94.01 min
Inclination
53.1601°
Eccentricity
0.0001306
Mean motion
15.31700691 rev/d
Perigee alt
469.8 km
Apogee alt
471.6 km
Semi-major
6,848.9 km
B*
1.3466e-5
RAAN
173.0646°
Arg perigee
85.9845°
Mean anomaly
274.1306°
Rev number
29,766

§ Raw data

STARLINK-25741 48395U 21038AU  26258.17913465  .00000053  00000+0  13466-4 0  99932 48395  53.1601 173.0646 0001306  85.9845 274.1306 15.31700691297669

JSON: /api/v1/satellites/48395 · /tle

For live sub-satellite position, see the globe view (requires WebGL).

§ Visibility from observer

Set your observer location to see the next 7 days of passes ≥ 10°. The values pass through the URL so the page stays shareable.

No JS? Fill the form by hand. The geolocation button needs JavaScript.